• Em Portugal
  • Lista de países
  • Para 7 dias
  • Temperatura da água
  • Mapas de satélite
  • Mapa do tempo
  • Widgets de tempo
  • user-avatar
    Iniciar Sessão

    Previsão horária em Grigorovichi

    Hoje, 16 Julho, Segunda-feira

    Tempo Temperatura Precipitação Vento Pressão Humidade
    00:00 +18°C° 0 mm 2 m/s 734 mmHg 94%
    01:00 +18°C° 0 mm 2 m/s 734 mmHg 94%
    02:00 +18°C° 0 mm 1 m/s 734 mmHg 95%
    03:00 +18°C° 0,1 mm 1 m/s 734 mmHg 95%
    04:00 +17°C° 0,1 mm 2 m/s 734 mmHg 95%
    05:00 +17°C° 0,1 mm 2 m/s 734 mmHg 96%
    06:00 +18°C° 0,4 mm 2 m/s 734 mmHg 94%
    07:00 +19°C° 0,4 mm 3 m/s 734 mmHg 93%
    08:00 +20°C° 0 mm 3 m/s 734 mmHg 91%
    09:00 +21°C° 0,7 mm 3 m/s 734 mmHg 87%
    10:00 +22°C° 0,7 mm 3 m/s 734 mmHg 83%
    11:00 +23°C° 0,7 mm 4 m/s 734 mmHg 80%
    12:00 +24°C° 0,9 mm 3 m/s 734 mmHg 83%
    13:00 +23°C° 0,9 mm 4 m/s 734 mmHg 83%
    14:00 +23°C° 0,9 mm 4 m/s 733 mmHg 83%
    15:00 +23°C° 0,7 mm 4 m/s 733 mmHg 84%
    16:00 +23°C° 0,7 mm 4 m/s 733 mmHg 84%
    17:00 +23°C° 0,7 mm 4 m/s 733 mmHg 84%
    18:00 +22°C° 1,3 mm 4 m/s 733 mmHg 86%
    19:00 +22°C° 1,3 mm 4 m/s 732 mmHg 88%
    20:00 +21°C° 1,3 mm 4 m/s 732 mmHg 90%
    21:00 +20°C° 1,6 mm 4 m/s 732 mmHg 92%
    22:00 +20°C° 1,6 mm 3 m/s 732 mmHg 93%
    23:00 +20°C° 1,6 mm 3 m/s 732 mmHg 94%

    Amanhã, 17 Julho, Terça-feira

    Tempo Temperatura Precipitação Vento Pressão Humidade
    00:00 +19°C° 0,2 mm 3 m/s 732 mmHg 95%
    01:00 +19°C° 0,2 mm 3 m/s 732 mmHg 95%
    02:00 +19°C° 0,2 mm 3 m/s 732 mmHg 96%
    03:00 +19°C° 0 mm 3 m/s 732 mmHg 96%
    04:00 +19°C° 0 mm 4 m/s 732 mmHg 96%
    05:00 +19°C° 0 mm 4 m/s 731 mmHg 97%
    06:00 +20°C° 0 mm 4 m/s 731 mmHg 94%
    07:00 +21°C° 0 mm 5 m/s 731 mmHg 91%
    08:00 +22°C° 0 mm 5 m/s 731 mmHg 88%
    09:00 +23°C° 0,6 mm 6 m/s 731 mmHg 84%
    10:00 +24°C° 0,6 mm 6 m/s 731 mmHg 79%
    11:00 +27°C° 0,6 mm 6 m/s 731 mmHg 75%
    12:00 +27°C° 1,2 mm 6 m/s 731 mmHg 76%
    13:00 +27°C° 1,2 mm 5 m/s 731 mmHg 76%
    14:00 +27°C° 1,2 mm 5 m/s 731 mmHg 76%
    15:00 +27°C° 0,8 mm 4 m/s 731 mmHg 78%
    16:00 +27°C° 0,8 mm 4 m/s 731 mmHg 80%
    17:00 +26°C° 0,8 mm 4 m/s 731 mmHg 82%
    18:00 +25°C° 0,4 mm 3 m/s 731 mmHg 84%
    19:00 +24°C° 0,4 mm 3 m/s 731 mmHg 86%
    20:00 +22°C° 0,4 mm 3 m/s 731 mmHg 88%
    21:00 +21°C° 0 mm 3 m/s 731 mmHg 89%
    22:00 +21°C° 0 mm 3 m/s 731 mmHg 91%
    23:00 +20°C° 0 mm 3 m/s 731 mmHg 93%

    Depois de amanhã, 18 Julho, Quarta-feira

    Tempo Temperatura Precipitação Vento Pressão Humidade
    00:00 +20°C° 0 mm 3 m/s 731 mmHg 93%
    01:00 +19°C° 0 mm 3 m/s 731 mmHg 94%
    02:00 +19°C° 0 mm 3 m/s 731 mmHg 94%
    03:00 +19°C° 0 mm 3 m/s 731 mmHg 94%
    04:00 +19°C° 0 mm 4 m/s 731 mmHg 94%
    05:00 +19°C° 0 mm 4 m/s 731 mmHg 95%
    06:00 +20°C° 0 mm 4 m/s 731 mmHg 91%
    07:00 +21°C° 0 mm 4 m/s 731 mmHg 87%
    08:00 +22°C° 0 mm 5 m/s 731 mmHg 82%
    09:00 +23°C° 0 mm 5 m/s 731 mmHg 79%
    10:00 +25°C° 0 mm 5 m/s 731 mmHg 75%
    11:00 +26°C° 0 mm 5 m/s 731 mmHg 71%
    12:00 +26°C° 0,4 mm 5 m/s 731 mmHg 72%
    13:00 +26°C° 0,4 mm 5 m/s 731 mmHg 73%
    14:00 +26°C° 0,4 mm 5 m/s 730 mmHg 74%
    15:00 +26°C° 0,9 mm 5 m/s 730 mmHg 74%
    16:00 +26°C° 0,9 mm 4 m/s 730 mmHg 75%
    17:00 +26°C° 0,9 mm 4 m/s 730 mmHg 76%
    18:00 +23°C° 0,7 mm 4 m/s 730 mmHg 80%
    19:00 +22°C° 0,7 mm 3 m/s 730 mmHg 85%
    20:00 +21°C° 0,7 mm 3 m/s 730 mmHg 90%
    21:00 +20°C° 0 mm 3 m/s 730 mmHg 92%
    22:00 +19°C° 0 mm 3 m/s 730 mmHg 94%
    23:00 +18°C° 0 mm 3 m/s 730 mmHg 95%

    19 Julho, Quinta-feira

    Tempo Temperatura Precipitação Vento Pressão Humidade
    00:00 +18°C° 0 mm 3 m/s 730 mmHg 96%
    01:00 +18°C° 0 mm 3 m/s 730 mmHg 96%
    02:00 +17°C° 0 mm 3 m/s 730 mmHg 97%
    03:00 +17°C° 1,1 mm 3 m/s 730 mmHg 97%
    04:00 +18°C° 1,1 mm 3 m/s 730 mmHg 97%
    05:00 +18°C° 1,1 mm 3 m/s 730 mmHg 97%
    06:00 +18°C° 0,2 mm 3 m/s 730 mmHg 96%
    07:00 +19°C° 0,2 mm 3 m/s 730 mmHg 95%
    08:00 +19°C° 0,2 mm 3 m/s 730 mmHg 94%
    09:00 +20°C° 0,3 mm 3 m/s 730 mmHg 91%
    10:00 +21°C° 0,3 mm 3 m/s 731 mmHg 88%
    11:00 +22°C° 0,3 mm 3 m/s 731 mmHg 85%
    12:00 +22°C° 1,1 mm 4 m/s 730 mmHg 84%
    13:00 +23°C° 1,1 mm 4 m/s 730 mmHg 83%
    14:00 +23°C° 1,1 mm 4 m/s 730 mmHg 82%
    15:00 +23°C° 1,3 mm 4 m/s 730 mmHg 83%
    16:00 +22°C° 1,3 mm 4 m/s 730 mmHg 85%
    17:00 +22°C° 1,3 mm 3 m/s 730 mmHg 86%
    18:00 +21°C° 0,4 mm 3 m/s 730 mmHg 88%
    19:00 +21°C° 0,4 mm 3 m/s 730 mmHg 90%
    20:00 +20°C° 0,4 mm 3 m/s 730 mmHg 92%
    21:00 +19°C° 0,1 mm 2 m/s 730 mmHg 93%
    22:00 +18°C° 0,1 mm 2 m/s 730 mmHg 95%
    23:00 +18°C° 0,1 mm 2 m/s 730 mmHg 96%

    20 Julho, Sexta-feira

    Tempo Temperatura Precipitação Vento Pressão Humidade
    00:00 +17°C° 0 mm 2 m/s 730 mmHg 96%
    01:00 +17°C° 0 mm 2 m/s 730 mmHg 96%
    02:00 +17°C° 0 mm 2 m/s 730 mmHg 97%
    03:00 +17°C° 0 mm 2 m/s 730 mmHg 97%
    04:00 +17°C° 0 mm 2 m/s 730 mmHg 97%
    05:00 +17°C° 0 mm 2 m/s 730 mmHg 98%
    06:00 +18°C° 0 mm 2 m/s 730 mmHg 94%
    07:00 +19°C° 0 mm 2 m/s 730 mmHg 90%
    08:00 +21°C° 0 mm 2 m/s 730 mmHg 87%
    09:00 +21°C° 0,6 mm 2 m/s 730 mmHg 84%
    10:00 +23°C° 0,6 mm 2 m/s 730 mmHg 82%
    11:00 +24°C° 0,6 mm 2 m/s 730 mmHg 80%
    12:00 +25°C° 1,2 mm 1 m/s 730 mmHg 78%
    13:00 +25°C° 1,2 mm 1 m/s 730 mmHg 75%
    14:00 +26°C° 1,2 mm 1 m/s 730 mmHg 73%
    15:00 +26°C° 0,3 mm 1 m/s 730 mmHg 73%
    16:00 +26°C° 0,3 mm 1 m/s 730 mmHg 73%
    17:00 +26°C° 0,3 mm 2 m/s 730 mmHg 74%
    18:00 +25°C° 0,2 mm 1 m/s 730 mmHg 79%
    19:00 +23°C° 0,2 mm 1 m/s 730 mmHg 85%
    20:00 +22°C° 0,2 mm 1 m/s 730 mmHg 90%
    21:00 +21°C° 0 mm 1 m/s 730 mmHg 92%
    22:00 +21°C° 0 mm 1 m/s 730 mmHg 93%
    23:00 +20°C° 0 mm 1 m/s 730 mmHg 95%

    21 Julho, Sábado

    Tempo Temperatura Precipitação Vento Pressão Humidade
    00:00 +20°C° 0 mm 1 m/s 730 mmHg 95%
    01:00 +19°C° 0 mm 1 m/s 730 mmHg 96%
    02:00 +18°C° 0 mm 2 m/s 730 mmHg 96%
    03:00 +19°C° 0 mm 1 m/s 730 mmHg 97%
    04:00 +19°C° 0 mm 1 m/s 730 mmHg 97%
    05:00 +19°C° 0 mm 1 m/s 730 mmHg 97%
    06:00 +19°C° 0 mm 2 m/s 730 mmHg 93%
    07:00 +21°C° 0 mm 2 m/s 730 mmHg 89%
    08:00 +23°C° 0 mm 2 m/s 730 mmHg 85%
    09:00 +24°C° 0,2 mm 2 m/s 730 mmHg 80%
    10:00 +25°C° 0,2 mm 2 m/s 730 mmHg 75%
    11:00 +26°C° 0,2 mm 2 m/s 730 mmHg 70%
    12:00 +27°C° 0,4 mm 2 m/s 730 mmHg 69%
    13:00 +27°C° 0,4 mm 2 m/s 730 mmHg 68%
    14:00 +28°C° 0,4 mm 3 m/s 730 mmHg 67%
    15:00 +27°C° 1,4 mm 3 m/s 730 mmHg 70%
    16:00 +27°C° 1,4 mm 3 m/s 730 mmHg 74%
    17:00 +26°C° 1,4 mm 3 m/s 730 mmHg 77%
    18:00 +25°C° 0,5 mm 3 m/s 730 mmHg 82%
    19:00 +24°C° 0,5 mm 3 m/s 730 mmHg 86%
    20:00 +23°C° 0,5 mm 2 m/s 730 mmHg 91%
    21:00 +21°C° 0 mm 2 m/s 730 mmHg 93%
    22:00 +20°C° 0 mm 2 m/s 729 mmHg 94%
    23:00 +19°C° 0 mm 2 m/s 729 mmHg 96%
    Mostrar mais